Temperature
18 18 18 18 18 18 18 18 18 18 18 18 18 18 18 18 18 18 18 18 18 18 18 18 18 18 18 18 18 18 18 18 18 18 18 18 18 18 18 18 18 18 18
18 18 18 18 18 18 18 18 18 18 18 18 18 18 18 18 18 18 18 18 18 18 18 18 18 18 18 18 18 18 18 18 18 18 18 18 18 18 18 18 18 18 18
18 18 18 18 18 18 18 18 18 18 18 18 18 18 18 18 18 18 18 18 18 18 18 18 18 18 18 18 18 18 18 18 18 18 18 18 18 18 18 18 18 18 18
18 18 18 18 18 18 18 18 18 18 18 18 18 18 18 18 18 18 18 18 18 18 18 18 18 18 18 18 18 17 17 18 18 18 18 18 18 18 18 18 18 18 18
18 18 18 18 18 18 18 18 18 17 17 18 18 18 18 18 18 18 18 18 18 18 18 18 18 18 18 18 17 17 17 17 17 17 17 18 18 17 18 18 17 17 17
18 18 18 18 18 18 18 17 17 17 17 17 18 18 18 18 18 18 18 17 17 18 18 18 18 18 18 17 17 17 17 17 17 17 17 17 17 17 17 17 17 17 17
18 18 18 18 18 18 17 17 17 17 17 17 17 17 17 17 17 17 17 17 17 17 17 17 17 17 17 17 17 17 17 17 17 17 17 17 17 17 17 17 17 17 17
18 18 18 18 18 18 17 17 17 17 17 17 17 17 17 17 17 17 17 17 17 17 17 17 17 17 17 17 17 17 17 17 17 17 17 17 17 17 17 17 17 17 17
18 18 18 18 17 17 17 17 17 17 17 17 17 17 17 17 17 17 17 17 17 17 17 17 17 17 17 17 17 17 17 16 16 16 17 17 17 17 17 17 17 17 17
18 18 18 17 17 17 17 17 17 17 17 17 17 17 17 17 17 17 17 17 17 17 17 17 17 17 17 17 16 16 16 16 16 16 16 16 17 17 17 16 16 16 16
18 18 18 17 17 17 17 17 17 17 17 17 16 16 16 16 16 16 16 16 16 16 16 16 16 16 16 16 16 16 16 16 16 16 16 16 16 16 16 16 16 16 16
18 18 18 18 17 17 17 17 16 16 16 16 16 16 16 16 16 16 16 16 16 16 16 16 16 16 16 16 16 16 16 16 16 16 16 16 16 16 16 16 16 16 16
18 18 18 18 18 17 17 17 16 16 16 16 16 16 16 16 16 16 16 16 16 16 16 16 16 16 16 16 16 16 16 16 16 16 15 16 16 16 16 16 16 16 16
18 18 18 18 18 17 17 17 17 16 16 16 16 16 16 16 16 16 16 16 16 15 15 15 15 16 16 15 15 15 15 16 15 15 15 15 16 16 16 16 15 15 15
18 18 18 18 18 17 17 17 17 16 16 16 16 16 16 16 16 16 16 15 15 15 15 15 15 15 15 15 15 15 15 15 15 15 15 15 15 15 15 15 15 15 15
18 18 18 18 18 18 17 17 17 16 16 16 16 16 16 16 16 16 15 15 15 15 15 15 15 15 15 15 15 15 15 15 15 15 15 15 15 15 15 15 15 15 15
18 18 18 18 18 18 17 17 17 16 16 16 16 16 16 16 16 15 15 15 15 15 15 15 15 15 15 15 15 15 15 15 14 15 15 15 15 15 15 15 15 15 15
19 18 18 17 17 17 17 17 17 17 16 16 16 16 16 16 15 15 15 15 15 15 15 15 15 15 15 14 14 14 14 14 14 14 14 14 14 14 14 14 14 14 14
18 18 18 17 17 17 17 17 17 16 16 16 16 16 15 15 15 15 15 15 15 15 15 14 14 14 14 14 14 14 14 14 14 14 14 14 14 14 14 14 14 14 14
18 18 18 17 17 17 17 16 16 16 16 15 15 15 15 15 15 15 15 14 14 14 14 14 14 14 14 14 14 14 14 14 14 14 14 14 13 13 13 13 13 14 14
18 18 17 17 17 17 16 16 16 16 15 15 15 15 15 15 15 15 14 14 14 14 14 14 14 14 14 14 14 14 14 14 14 14 14 13 13 13 13 13 13 13 13
18 18 17 17 17 16 16 16 16 15 15 15 15 15 15 15 14 14 14 14 14 14 14 14 14 14 14 14 14 14 14 14 14 14 14 13 13 13 13 13 13 13 13
18 17 17 17 16 16 16 16 15 15 15 15 15 15 15 14 14 14 14 14 14 14 14 14 14 14 14 13 14 14 14 13 13 13 13 13 13 13 13 13 13 12 12
17 17 17 17 16 16 16 15 15 15 15 15 15 15 14 14 14 14 14 14 14 13 13 13 13 13 13 13 13 14 14 14 13 13 13 13 13 13 13 13 12 12 12
17 17 17 16 16 16 16 15 15 15 15 15 14 14 14 14 14 14 14 14 13 13 13 13 13 13 13 13 13 13 13 14 14 13 13 13 13 13 13 12 12 12 12
17 17 17 16 16 16 15 15 15 15 15 15 14 14 14 14 14 14 14 13 13 13 13 13 13 13 13 13 13 13 13 13 13 13 13 13 13 13 12 12 12 12 12
Wind_Speed
6 9 9 10 11 11 11 11 11 11 12 12 12 13 13 12 12 12 12 13 13 13 13 13 12 12 11 11 10 10 10 10 9 9 10 10 9 10 10 9 8 8 10
8 10 11 11 11 11 11 11 11 11 12 13 13 13 13 13 13 13 13 13 13 13 13 13 12 12 11 12 11 11 10 10 9 10 11 11 12 12 11 10 10 9 11
9 10 11 11 11 11 11 12 12 12 12 13 13 14 13 13 13 13 13 13 13 13 13 13 13 13 12 12 11 10 10 9 9 9 9 9 10 12 12 12 12 12 11
10 11 11 11 11 11 12 12 13 13 13 13 13 14 13 13 13 13 13 13 14 14 14 13 13 13 12 11 11 10 9 9 9 9 8 9 9 11 12 12 11 11 11
10 13 11 11 11 11 12 12 13 13 13 13 13 14 14 14 14 14 14 14 14 15 14 14 14 13 12 11 10 9 8 8 10 9 9 10 10 11 12 12 11 11 11
10 12 11 11 11 12 12 13 13 13 13 13 14 14 15 16 16 15 15 15 15 15 15 15 14 12 11 10 9 8 9 9 9 9 10 10 9 12 12 12 11 11 10
9 11 12 11 12 13 13 13 14 14 13 14 14 14 15 16 16 15 15 15 15 15 15 15 14 12 11 10 9 8 8 9 8 8 9 10 10 12 12 11 11 11 10
9 10 11 12 13 13 14 14 14 13 13 13 13 13 14 15 15 15 15 15 15 14 14 14 13 11 11 10 9 8 8 9 9 9 9 9 11 12 11 10 10 11 10
8 8 9 10 11 13 14 14 13 12 12 11 11 11 12 13 14 14 15 15 15 14 13 12 11 10 9 9 8 8 9 9 8 7 9 9 11 12 12 11 10 10 10
6 6 8 9 10 11 11 12 11 11 10 10 10 10 11 12 13 14 14 14 14 13 12 11 10 9 8 6 6 7 8 8 8 8 8 9 12 12 12 11 10 10 10
6 5 6 7 7 9 10 10 9 8 8 7 7 8 8 9 10 12 13 12 12 11 10 8 7 7 6 5 5 6 6 7 8 9 9 11 12 12 12 11 10 10 10
5 4 6 6 6 7 7 7 6 6 5 4 6 7 6 7 9 10 10 10 9 8 7 6 5 4 4 3 4 4 6 8 8 9 9 12 12 12 12 11 11 11 10
4 4 5 5 6 6 4 5 4 4 3 4 6 7 6 7 7 7 5 5 5 6 4 4 3 4 4 4 4 6 8 8 8 9 10 12 11 12 11 10 11 11 11
5 4 5 5 6 5 5 4 3 3 3 4 5 6 5 2 3 4 4 4 4 4 4 4 4 5 5 6 6 7 8 8 8 9 10 11 11 11 11 10 10 10 11
6 4 4 5 5 5 4 2 4 3 3 4 4 5 6 3 3 3 3 4 5 5 4 3 4 4 5 6 7 8 7 8 9 10 10 11 11 11 11 10 11 11 10
6 4 5 4 5 5 4 3 3 3 4 5 3 4 7 5 3 3 4 4 4 4 4 4 4 4 4 4 6 6 7 7 8 9 10 10 12 11 11 10 11 10 10
6 5 5 3 4 5 4 3 3 3 4 3 3 4 7 6 5 4 4 3 3 5 6 5 5 4 4 4 4 5 5 6 6 8 9 9 9 11 11 11 11 11 11
6 6 5 4 4 4 4 4 3 3 4 3 3 4 5 6 6 5 3 3 4 5 3 3 4 4 4 4 3 3 4 4 5 6 7 8 8 9 10 12 11 11 11
5 6 6 4 4 4 4 3 3 3 4 4 4 4 4 6 7 5 3 2 5 3 3 3 4 4 3 3 2 3 3 3 3 5 5 7 9 9 8 10 11 11 12
5 6 6 5 4 4 3 3 3 3 3 3 3 4 5 5 6 5 3 4 4 3 3 4 4 3 2 1 2 3 3 2 3 4 4 5 7 7 7 8 8 9 10
5 5 6 5 5 4 3 2 3 2 2 3 2 3 4 4 4 4 2 3 3 2 2 3 2 2 2 1 2 1 1 2 3 2 3 3 4 5 5 7 7 7 8
5 5 6 5 5 5 3 3 2 3 2 2 2 2 3 3 3 3 2 3 3 2 3 3 2 1 2 2 1 1 1 1 1 2 2 2 2 3 4 6 7 7 7
5 6 5 6 6 5 5 3 3 2 1 1 1 1 2 2 3 3 2 2 2 2 2 1 1 2 1 2 2 1 1 0 1 1 1 2 2 2 2 3 5 7 8
5 5 6 6 6 6 6 4 4 3 2 2 2 2 2 2 2 2 2 2 1 2 2 0 1 0 1 1 1 2 1 2 1 0 1 1 2 2 2 2 4 5 7
5 4 4 5 5 5 5 5 4 3 2 2 2 3 2 2 2 2 2 1 1 2 1 1 1 1 0 0 0 1 1 1 0 1 1 0 0 1 2 2 3 4 6
5 5 4 4 4 4 4 5 4 3 2 2 2 1 1 1 1 1 2 1 1 1 1 1 1 0 0 0 0 0 0 0 0 1 1 1 1 1 1 1 2 3 5
Wind_Direction
85 76 59 56 55 56 56 58 60 62 61 63 62 62 64 66 67 71 74 76 78 81 85 86 86 87 87 87 87 88 89 93 94 86 78 75 80 93 94 90 90 108 121
91 83 64 57 54 55 59 63 64 67 66 64 63 63 64 64 66 72 74 76 78 79 83 86 85 87 88 84 81 84 87 90 93 89 83 80 81 86 89 86 83 97 105
95 92 71 57 56 57 62 69 70 69 67 66 64 64 65 67 70 73 74 75 78 79 79 80 81 83 84 83 83 82 80 81 89 89 85 85 85 84 88 87 90 96 97
93 86 74 63 60 62 66 72 73 73 72 68 66 65 64 68 76 79 79 79 78 78 79 78 81 84 84 83 82 77 75 73 79 82 79 79 83 85 88 89 94 95 95
89 87 77 69 64 65 71 75 78 77 75 71 69 67 65 67 75 80 81 82 80 78 77 77 77 81 84 84 82 74 69 71 77 74 76 77 77 84 89 89 92 95 95
93 93 85 76 71 73 76 78 80 80 77 75 72 70 70 72 77 80 80 80 80 77 75 75 75 77 81 79 74 67 64 69 71 79 78 78 80 85 87 89 89 93 95
97 99 96 87 83 81 81 82 81 81 79 75 72 73 73 75 77 80 81 80 80 78 76 74 73 73 76 75 70 66 63 74 76 77 79 80 81 86 87 90 90 90 93
100 102 106 98 92 88 87 87 84 81 80 79 76 75 76 78 79 80 80 81 81 80 77 74 73 71 71 69 65 63 61 71 79 82 81 81 84 85 87 89 91 92 90
103 110 113 116 106 99 94 90 87 83 82 85 83 81 82 84 86 83 82 81 79 78 78 78 76 73 70 65 58 58 60 65 67 76 84 85 89 89 87 88 89 89 89
101 112 119 115 115 114 108 98 93 91 89 90 89 88 91 91 88 86 82 82 80 78 77 78 79 77 69 62 55 62 60 61 69 75 80 85 89 90 87 86 88 87 86
96 98 105 114 114 111 110 103 107 106 106 105 103 98 101 96 92 87 87 88 86 84 83 83 83 83 74 64 68 75 67 77 81 75 77 86 89 91 90 86 88 87 85
104 105 105 110 111 108 105 111 112 103 107 103 97 96 95 92 90 90 97 96 93 91 92 85 79 73 68 70 80 79 79 78 77 82 81 87 89 90 89 87 86 84 81
109 101 105 110 114 108 106 107 96 90 87 71 78 88 89 88 98 97 107 110 105 89 75 71 69 62 64 60 74 78 78 79 75 79 83 87 88 89 88 88 87 84 81
103 93 99 104 109 109 104 109 107 93 80 65 64 77 77 83 89 94 93 86 82 66 62 57 54 50 47 54 64 75 81 87 85 86 84 88 87 88 85 86 91 87 84
115 115 102 97 103 107 97 102 109 101 93 83 58 81 77 68 66 79 82 65 62 56 58 55 56 45 41 41 55 64 75 86 91 91 84 83 88 88 84 83 86 90 88
128 128 104 103 108 113 113 114 111 103 83 82 58 69 83 66 65 66 69 63 56 53 55 59 58 53 54 50 49 58 67 78 88 97 96 87 84 85 83 85 85 85 83
136 126 110 108 107 111 109 105 93 97 102 95 77 68 79 79 72 76 61 62 60 52 54 56 50 54 60 59 56 56 61 67 84 92 98 97 91 87 86 85 84 81 79
131 119 115 120 109 98 95 99 91 93 92 89 75 69 80 79 72 76 68 57 62 58 58 59 49 43 47 49 50 51 58 61 69 85 94 95 93 90 89 88 84 81 77
131 123 118 109 102 94 94 103 91 87 84 81 72 59 63 74 78 81 76 69 66 54 40 53 57 52 50 50 62 67 62 58 58 73 79 87 95 97 98 98 91 84 78
130 125 124 126 121 109 92 92 92 84 82 79 75 67 60 62 73 82 91 78 73 60 41 50 60 54 47 34 62 80 87 89 68 56 70 82 93 100 106 106 105 93 83
140 137 132 133 128 114 106 100 103 105 99 90 87 79 76 66 69 77 84 84 79 72 68 59 63 58 38 48 66 58 77 94 101 88 73 77 85 95 109 114 108 100 93
150 148 140 138 131 123 122 121 125 118 118 112 114 102 93 77 70 75 79 86 92 81 64 56 52 47 14 22 64 84 64 41 29 109 105 99 93 83 82 95 107 106 101
159 159 152 143 138 133 129 123 116 106 104 105 133 118 108 94 79 73 75 91 106 104 104 100 69 63 4 344 29 77 101 105 340 47 124 112 106 95 80 82 96 107 109
159 155 153 152 150 143 137 141 148 150 162 169 154 144 147 109 100 96 81 89 105 98 112 137 91 38 93 337 340 9 70 128 127 354 339 100 123 121 121 90 83 94 103
150 145 147 150 147 141 148 150 158 153 161 149 140 144 148 146 144 123 107 97 98 102 117 92 71 31 82 141 221 342 6 15 159 148 227 269 39 149 131 125 115 105 110
135 142 148 145 136 136 147 153 167 167 169 143 143 160 152 144 146 122 107 105 109 104 108 109 104 109 15 2 295 139 129 48 269 126 195 213 219 208 142 131 133 124 125
Height
1507 1506 1505 1504 1503 1502 1502 1502 1502 1502 1501 1501 1501 1501 1500 1500 1500 1501 1501 1502 1502 1503 1504 1505 1506 1507 1508 1510 1511 1511 1512 1513 1513 1513 1511 1509 1508 1509 1512 1514 1514 1514 1517
1507 1506 1506 1505 1504 1503 1503 1503 1503 1503 1503 1503 1502 1502 1502 1502 1502 1502 1503 1504 1504 1505 1506 1507 1509 1509 1510 1511 1512 1513 1513 1514 1514 1514 1514 1513 1512 1513 1515 1516 1516 1516 1519
1508 1507 1506 1505 1505 1504 1504 1503 1504 1504 1504 1504 1504 1503 1503 1502 1502 1503 1504 1505 1506 1507 1508 1509 1510 1511 1512 1513 1513 1514 1515 1515 1516 1516 1516 1516 1516 1516 1517 1518 1519 1520 1522
1509 1508 1507 1506 1505 1504 1504 1504 1504 1505 1505 1505 1505 1505 1503 1502 1501 1504 1505 1506 1508 1509 1510 1511 1511 1512 1513 1514 1515 1516 1517 1517 1518 1518 1518 1518 1518 1519 1519 1520 1521 1523 1524
1510 1509 1508 1507 1506 1505 1505 1505 1505 1506 1507 1507 1507 1506 1504 1501 1501 1504 1507 1508 1509 1510 1511 1512 1513 1514 1515 1516 1517 1518 1518 1519 1519 1519 1520 1520 1520 1521 1522 1522 1523 1525 1526
1511 1510 1509 1507 1506 1506 1505 1506 1507 1508 1508 1509 1508 1508 1507 1505 1505 1507 1509 1510 1511 1512 1513 1514 1515 1516 1516 1517 1518 1519 1520 1520 1520 1521 1521 1522 1522 1522 1523 1524 1525 1526 1528
1512 1511 1510 1508 1507 1507 1507 1508 1509 1510 1510 1511 1511 1510 1510 1510 1510 1511 1511 1512 1513 1514 1515 1516 1516 1517 1518 1519 1520 1520 1521 1521 1521 1522 1522 1523 1523 1524 1525 1526 1527 1528 1529
1513 1512 1511 1510 1509 1509 1509 1510 1511 1512 1512 1513 1513 1513 1513 1513 1513 1514 1514 1515 1516 1516 1517 1517 1518 1519 1520 1521 1521 1522 1523 1523 1523 1523 1524 1524 1525 1525 1526 1527 1528 1529 1530
1515 1514 1513 1512 1512 1512 1512 1513 1513 1514 1514 1515 1515 1516 1516 1516 1516 1516 1517 1517 1518 1518 1519 1519 1520 1520 1521 1522 1523 1523 1524 1524 1524 1525 1525 1526 1526 1527 1527 1528 1529 1530 1531
1517 1517 1516 1515 1515 1514 1515 1516 1516 1516 1517 1517 1518 1518 1518 1518 1518 1519 1519 1519 1520 1520 1521 1521 1522 1522 1523 1524 1524 1525 1525 1525 1526 1526 1526 1527 1528 1528 1529 1529 1530 1531 1532
1518 1518 1518 1518 1518 1518 1518 1518 1518 1519 1519 1520 1520 1520 1521 1521 1521 1521 1522 1522 1522 1523 1523 1523 1524 1524 1525 1525 1526 1526 1526 1526 1526 1527 1528 1529 1529 1529 1530 1530 1531 1532 1532
1519 1520 1520 1520 1520 1520 1520 1520 1521 1521 1522 1522 1523 1523 1523 1524 1524 1524 1524 1524 1524 1525 1525 1525 1525 1526 1526 1526 1527 1527 1527 1527 1527 1528 1529 1530 1530 1530 1531 1531 1532 1533 1533
1520 1521 1521 1522 1522 1522 1522 1522 1523 1523 1524 1524 1525 1525 1526 1526 1526 1526 1526 1527 1527 1527 1527 1527 1527 1527 1527 1527 1528 1528 1528 1528 1528 1529 1530 1531 1531 1532 1532 1532 1533 1533 1534
1521 1522 1522 1523 1523 1523 1523 1524 1524 1525 1525 1526 1527 1527 1527 1528 1528 1529 1529 1529 1529 1529 1529 1529 1528 1529 1529 1529 1529 1529 1528 1528 1529 1530 1531 1531 1532 1532 1533 1533 1534 1534 1535
1521 1522 1523 1523 1524 1524 1524 1525 1525 1526 1527 1527 1528 1529 1529 1529 1530 1530 1530 1530 1530 1530 1530 1530 1530 1530 1530 1530 1530 1530 1530 1530 1530 1531 1531 1532 1533 1533 1534 1534 1534 1535 1535
1521 1522 1523 1524 1524 1525 1525 1526 1526 1527 1528 1528 1529 1530 1530 1530 1531 1531 1531 1531 1531 1531 1531 1531 1531 1531 1531 1531 1531 1531 1531 1531 1532 1532 1532 1533 1533 1534 1534 1535 1535 1535 1536
1520 1522 1523 1524 1525 1525 1526 1526 1527 1528 1528 1529 1530 1530 1531 1531 1532 1532 1532 1533 1533 1533 1532 1532 1532 1532 1532 1532 1532 1532 1532 1533 1533 1533 1533 1534 1534 1534 1535 1535 1536 1536 1536
1520 1521 1522 1524 1525 1525 1526 1526 1527 1528 1529 1529 1530 1531 1531 1532 1532 1532 1533 1533 1533 1533 1533 1533 1533 1533 1533 1533 1533 1533 1533 1534 1534 1534 1534 1534 1534 1535 1535 1535 1536 1536 1537
1519 1520 1521 1523 1524 1525 1526 1526 1527 1528 1529 1529 1530 1530 1531 1532 1532 1532 1533 1534 1534 1534 1534 1534 1534 1534 1534 1534 1534 1534 1534 1535 1535 1535 1535 1535 1535 1535 1536 1536 1536 1537 1537
1518 1520 1520 1522 1523 1524 1525 1526 1527 1528 1529 1529 1530 1531 1532 1532 1532 1533 1533 1534 1534 1534 1534 1534 1534 1534 1534 1535 1535 1535 1535 1536 1536 1536 1536 1536 1536 1536 1536 1536 1537 1537 1537
1517 1518 1519 1521 1522 1523 1524 1525 1526 1527 1528 1529 1530 1531 1531 1532 1532 1533 1533 1533 1534 1534 1534 1534 1535 1535 1535 1535 1535 1535 1536 1536 1536 1537 1537 1537 1537 1537 1537 1537 1537 1537 1538
1515 1517 1518 1520 1521 1522 1523 1524 1526 1526 1528 1529 1530 1530 1531 1532 1532 1533 1533 1533 1534 1534 1534 1534 1535 1535 1535 1535 1535 1535 1536 1538 1537 1537 1537 1537 1537 1537 1538 1538 1537 1537 1538
1514 1515 1517 1518 1520 1521 1522 1524 1525 1526 1527 1528 1529 1530 1530 1531 1532 1532 1533 1533 1533 1534 1534 1534 1535 1535 1535 1535 1536 1536 1536 1536 1537 1538 1537 1537 1538 1538 1538 1538 1537 1537 1537
1512 1514 1515 1517 1519 1520 1521 1522 1524 1524 1526 1527 1528 1529 1530 1530 1531 1532 1532 1532 1533 1533 1533 1534 1534 1534 1535 1535 1535 1536 1536 1536 1536 1537 1538 1537 1537 1537 1537 1538 1537 1537 1537
1510 1512 1514 1516 1517 1518 1519 1521 1522 1524 1525 1526 1527 1528 1528 1529 1530 1531 1531 1532 1532 1532 1532 1533 1533 1533 1534 1534 1534 1534 1535 1535 1536 1536 1536 1537 1537 1537 1537 1537 1537 1537 1536
1508 1510 1511 1513 1515 1516 1518 1519 1521 1522 1524 1525 1525 1526 1527 1528 1529 1530 1530 1531 1531 1531 1531 1531 1532 1532 1532 1533 1533 1534 1534 1534 1535 1535 1535 1535 1536 1536 1536 1536 1536 1536 1536